Volver al catálogo

COSMOS 1320

ActivoMilitarLEO
NORAD 12975·PAYLOAD·🇷🇺 Russia

Lanzado Nov 28, 1981 desde Plesetsk Cosmodrome

Loading…

Próximos Pases (próximas 24 horas)

TLE

ActualizadoSource: Space-Track

Época: Sep 14, 2026, 21:15 UTC

1 12975U 81116A   26257.88547433 -.00000010  00000-0  37686-4 0  9991
2 12975  73.9826 305.4151 0096222 147.7545  35.3496 12.28046256  8187

Sigue COSMOS 1320 en tiempo real con AllMySat

Download on the App Store